RYR6FG LIBR-LIMC

Flight info

Callsign RYR6FG
Flight time 1h 28m
Altitude 36000
Route FASAN DCT BAR DCT GENGI DCT GITOD DCT OKBIS DCT VERUN DCT LOMED M730 MIVKI T648 MEBUR
Aircraft B738/M-SDE2E3FGHIRWXY/LB1

Departure

Time 2026-04-14 14:05
Airport Brindisi Airport (LIBR)

Arrival

Time 2026-04-14 15:34
Airport Milan Malpensa International Airport (LIMC)
Time Latitude Longitude Altitude Speed Heading
2026-04-14 13:30 40.65844 17.94175 50 ft 0 kts
2026-04-14 13:56 40.65846 17.94177 55 ft 1 kts 20°
2026-04-14 13:56 40.65844 17.94187 51 ft 1 kts 119°
2026-04-14 13:57 40.65833 17.94196 49 ft 5 kts 145°
2026-04-14 13:57 40.65794 17.94232 55 ft 8 kts 144°
2026-04-14 13:57 40.65787 17.94290 52 ft 8 kts 53°
2026-04-14 13:57 40.65819 17.94344 51 ft 7 kts 52°
2026-04-14 13:58 40.65849 17.94396 53 ft 7 kts 52°
2026-04-14 13:58 40.65879 17.94447 55 ft 8 kts 52°
2026-04-14 13:58 40.65915 17.94508 52 ft 9 kts 53°
2026-04-14 13:58 40.65961 17.94587 48 ft 12 kts 52°
2026-04-14 13:59 40.66013 17.94677 53 ft 12 kts 53°
2026-04-14 13:59 40.66079 17.94692 56 ft 11 kts 316°
2026-04-14 13:59 40.66139 17.94616 52 ft 14 kts 316°
2026-04-14 13:59 40.66220 17.94517 51 ft 18 kts 317°
2026-04-14 14:00 40.66324 17.94390 49 ft 22 kts 317°
2026-04-14 14:00 40.66436 17.94254 52 ft 22 kts 317°
2026-04-14 14:00 40.66544 17.94121 50 ft 21 kts 315°
2026-04-14 14:00 40.66649 17.93992 52 ft 20 kts 317°
2026-04-14 14:01 40.66751 17.93867 53 ft 20 kts 317°
2026-04-14 14:01 40.66850 17.93746 55 ft 19 kts 317°
2026-04-14 14:01 40.66946 17.93628 56 ft 18 kts 317°
2026-04-14 14:01 40.67038 17.93515 56 ft 18 kts 317°
2026-04-14 14:02 40.67127 17.93405 52 ft 17 kts 317°
2026-04-14 14:02 40.67214 17.93299 51 ft 17 kts 317°
2026-04-14 14:02 40.67309 17.93183 53 ft 20 kts 317°
2026-04-14 14:02 40.67409 17.93061 52 ft 19 kts 316°
2026-04-14 14:03 40.67506 17.92942 55 ft 19 kts 317°
2026-04-14 14:03 40.67596 17.92832 54 ft 16 kts 317°
2026-04-14 14:03 40.67639 17.92746 55 ft 11 kts 276°
2026-04-14 14:03 40.67599 17.92666 55 ft 10 kts 229°
2026-04-14 14:04 40.67543 17.92612 54 ft 10 kts 177°
2026-04-14 14:04 40.67493 17.92661 54 ft 9 kts 194°
2026-04-14 14:04 40.67483 17.92664 54 ft 0 kts 135°
2026-04-14 14:04 40.67477 17.92671 51 ft 4 kts 134°
2026-04-14 14:05 40.67316 17.92880 55 ft 68 kts 136°
2026-04-14 14:05 40.66806 17.93508 50 ft 131 kts 137°
2026-04-14 14:05 40.66048 17.94415 413 ft 152 kts 137°
2026-04-14 14:05 40.65255 17.95355 1169 ft 153 kts 140°
2026-04-14 14:06 40.64494 17.96271 2080 ft 144 kts 142°
2026-04-14 14:06 40.63741 17.97167 2746 ft 150 kts 143°
2026-04-14 14:06 40.62944 17.98101 3361 ft 158 kts 142°
2026-04-14 14:06 40.62042 17.99152 3625 ft 187 kts 142°
2026-04-14 14:07 40.61030 18.00345 3980 ft 201 kts 140°
2026-04-14 14:07 40.60262 18.02026 4235 ft 234 kts 105°
2026-04-14 14:07 40.60428 18.04180 5055 ft 246 kts 71°
2026-04-14 14:07 40.61555 18.05911 5779 ft 260 kts 32°
2026-04-14 14:08 40.63313 18.06483 6445 ft 267 kts 353°
2026-04-14 14:08 40.65003 18.05650 7059 ft 267 kts 320°
2026-04-14 14:08 40.66499 18.04043 7344 ft 289 kts 317°
2026-04-14 14:08 40.68129 18.02423 7946 ft 297 kts 319°
2026-04-14 14:09 40.69468 18.00420 8688 ft 289 kts 290°
2026-04-14 14:09 40.70204 17.97982 9543 ft 286 kts 287°
2026-04-14 14:09 40.70931 17.95530 10257 ft 292 kts 287°
2026-04-14 14:09 40.71696 17.92933 10498 ft 317 kts 287°
2026-04-14 14:10 40.72517 17.90137 10850 ft 335 kts 288°
2026-04-14 14:10 40.73370 17.87246 11517 ft 341 kts 288°
2026-04-14 14:10 40.74235 17.84318 12334 ft 343 kts 288°
2026-04-14 14:10 40.75103 17.81380 13188 ft 345 kts 288°
2026-04-14 14:11 40.75975 17.78417 13963 ft 349 kts 288°
2026-04-14 14:11 40.76859 17.75411 14620 ft 354 kts 288°
2026-04-14 14:11 40.77753 17.72365 15282 ft 358 kts 288°
2026-04-14 14:11 40.78655 17.69287 15977 ft 361 kts 287°
2026-04-14 14:12 40.79565 17.66178 16644 ft 365 kts 287°
2026-04-14 14:12 40.80485 17.63025 17258 ft 371 kts 288°
2026-04-14 14:12 40.81418 17.59833 17907 ft 375 kts 287°
2026-04-14 14:12 40.82358 17.56607 18536 ft 378 kts 287°
2026-04-14 14:13 40.83305 17.53354 19121 ft 381 kts 287°
2026-04-14 14:13 40.84258 17.50082 19742 ft 383 kts 288°
2026-04-14 14:13 40.85217 17.46782 20337 ft 386 kts 288°
2026-04-14 14:13 40.86182 17.43468 20956 ft 387 kts 289°
2026-04-14 14:14 40.87338 17.40233 21520 ft 392 kts 296°
2026-04-14 14:14 40.88692 17.37087 22053 ft 397 kts 298°
2026-04-14 14:14 40.90101 17.33926 22520 ft 402 kts 298°
2026-04-14 14:14 40.91526 17.30735 23069 ft 404 kts 298°
2026-04-14 14:15 40.92951 17.27520 23595 ft 406 kts 298°
2026-04-14 14:15 40.94373 17.24278 24055 ft 409 kts 297°
2026-04-14 14:15 40.95793 17.21013 24524 ft 410 kts 297°
2026-04-14 14:15 40.97214 17.17731 25000 ft 411 kts 296°
2026-04-14 14:16 40.98632 17.14442 25433 ft 412 kts 296°
2026-04-14 14:16 41.00056 17.11131 25816 ft 415 kts 296°
2026-04-14 14:16 41.01487 17.07801 26209 ft 417 kts 296°
2026-04-14 14:17 41.04348 17.01134 26954 ft 422 kts 295°
2026-04-14 14:17 41.05801 16.97743 27297 ft 425 kts 295°
2026-04-14 14:17 41.07261 16.94333 27687 ft 426 kts 295°
2026-04-14 14:17 41.08723 16.90914 28085 ft 427 kts 295°
2026-04-14 14:18 41.10189 16.87481 28430 ft 429 kts 295°
2026-04-14 14:18 41.11661 16.84033 28790 ft 431 kts 295°
2026-04-14 14:18 41.13141 16.80561 29158 ft 433 kts 295°
2026-04-14 14:18 41.14612 16.77071 29531 ft 434 kts 293°
2026-04-14 14:19 41.15980 16.73506 29890 ft 434 kts 291°
2026-04-14 14:19 41.17281 16.69896 30267 ft 433 kts 290°
2026-04-14 14:19 41.18556 16.66267 30569 ft 435 kts 290°
2026-04-14 14:19 41.19831 16.62615 30838 ft 436 kts 290°
2026-04-14 14:20 41.21108 16.58972 31267 ft 434 kts 290°
2026-04-14 14:20 41.22385 16.55350 31681 ft 432 kts 290°
2026-04-14 14:20 41.23666 16.51732 32017 ft 433 kts 290°
2026-04-14 14:20 41.24950 16.48112 32314 ft 433 kts 290°
2026-04-14 14:21 41.26235 16.44491 32654 ft 433 kts 290°
2026-04-14 14:21 41.27519 16.40876 33021 ft 432 kts 290°
2026-04-14 14:21 41.28800 16.37265 33362 ft 432 kts 290°
2026-04-14 14:21 41.30081 16.33650 33674 ft 432 kts 291°
2026-04-14 14:22 41.32666 16.26330 33925 ft 440 kts 291°
2026-04-14 14:22 41.33965 16.22650 34259 ft 438 kts 291°
2026-04-14 14:22 41.35256 16.18994 34644 ft 435 kts 291°
2026-04-14 14:23 41.36538 16.15354 34957 ft 433 kts 291°
2026-04-14 14:23 41.37816 16.11719 35198 ft 434 kts 291°
2026-04-14 14:23 41.39093 16.08080 35437 ft 434 kts 291°
2026-04-14 14:23 41.40367 16.04445 35722 ft 433 kts 291°
2026-04-14 14:24 41.41638 16.00816 35940 ft 433 kts 291°
2026-04-14 14:24 41.42916 15.97157 35911 ft 437 kts 291°
2026-04-14 14:24 41.45479 15.89813 35900 ft 435 kts 291°
2026-04-14 14:25 41.48020 15.82517 35906 ft 432 kts 291°
2026-04-14 14:25 41.50533 15.75280 35910 ft 429 kts 291°
2026-04-14 14:26 41.53029 15.68070 35918 ft 428 kts 291°
2026-04-14 14:26 41.55520 15.60856 35919 ft 429 kts 290°
2026-04-14 14:27 41.58014 15.53615 35918 ft 430 kts 290°
2026-04-14 14:27 41.60499 15.46382 35913 ft 432 kts 290°
2026-04-14 14:28 41.63010 15.39053 35910 ft 435 kts 290°
2026-04-14 14:28 41.65528 15.31685 35905 ft 437 kts 290°
2026-04-14 14:29 41.68054 15.24277 35904 ft 439 kts 291°
2026-04-14 14:29 41.70585 15.16831 35902 ft 440 kts 291°
2026-04-14 14:30 41.73119 15.09360 35906 ft 441 kts 291°
2026-04-14 14:30 41.75652 15.01869 35904 ft 441 kts 291°
2026-04-14 14:31 41.78176 14.94386 35907 ft 440 kts 290°
2026-04-14 14:31 41.80690 14.86912 35905 ft 440 kts 291°
2026-04-14 14:32 41.83195 14.79444 35918 ft 439 kts 291°
2026-04-14 14:32 41.85695 14.71972 35908 ft 439 kts 291°
2026-04-14 14:33 41.88185 14.64505 35922 ft 438 kts 291°
2026-04-14 14:33 41.90667 14.57047 35914 ft 437 kts 291°
2026-04-14 14:34 41.94373 14.45868 35926 ft 436 kts 291°
2026-04-14 14:35 41.96836 14.38414 35923 ft 436 kts 290°
2026-04-14 14:35 41.99290 14.30966 35923 ft 436 kts 290°
2026-04-14 14:36 42.01734 14.23528 35929 ft 435 kts 290°
2026-04-14 14:36 42.04178 14.16071 35936 ft 436 kts 291°
2026-04-14 14:37 42.06624 14.08587 35931 ft 437 kts 291°
2026-04-14 14:37 42.09055 14.01129 35932 ft 439 kts 290°
2026-04-14 14:38 42.11505 13.93589 35939 ft 440 kts 290°
2026-04-14 14:38 42.13963 13.86006 35927 ft 442 kts 290°
2026-04-14 14:39 42.16420 13.78403 35919 ft 443 kts 291°
2026-04-14 14:39 42.18878 13.70778 35922 ft 444 kts 290°
2026-04-14 14:40 42.21335 13.63133 35913 ft 445 kts 290°
2026-04-14 14:40 42.23787 13.55483 35908 ft 443 kts 290°
2026-04-14 14:41 42.26228 13.47846 35921 ft 442 kts 290°
2026-04-14 14:41 42.28658 13.40217 35898 ft 442 kts 290°
2026-04-14 14:42 42.31080 13.32596 35922 ft 441 kts 290°
2026-04-14 14:42 42.33088 13.26256 35912 ft 442 kts 290°
2026-04-14 14:43 42.35500 13.18626 35922 ft 441 kts 290°
2026-04-14 14:43 42.37908 13.10988 35929 ft 441 kts 290°
2026-04-14 14:44 42.40608 13.03525 35901 ft 445 kts 303°
2026-04-14 14:44 42.44300 12.96788 35912 ft 447 kts 305°
2026-04-14 14:45 42.48062 12.90081 35910 ft 447 kts 305°
2026-04-14 14:45 42.51789 12.83323 35917 ft 448 kts 304°
2026-04-14 14:46 42.55497 12.76521 35928 ft 449 kts 304°
2026-04-14 14:46 42.59199 12.69698 35920 ft 449 kts 304°
2026-04-14 14:47 42.62903 12.62860 35912 ft 450 kts 304°
2026-04-14 14:47 42.66610 12.56003 35921 ft 450 kts 304°
2026-04-14 14:48 42.70312 12.49139 35915 ft 450 kts 304°
2026-04-14 14:48 42.74014 12.42261 35921 ft 451 kts 304°
2026-04-14 14:49 42.77712 12.35373 35929 ft 451 kts 304°
2026-04-14 14:49 42.81441 12.28572 35922 ft 452 kts 307°
2026-04-14 14:50 42.85455 12.21976 35924 ft 452 kts 309°
2026-04-14 14:50 42.89494 12.15397 35919 ft 452 kts 308°
2026-04-14 14:51 42.93493 12.08774 35924 ft 452 kts 308°
2026-04-14 14:51 42.97490 12.02146 35922 ft 452 kts 311°
2026-04-14 14:51 42.99837 11.99299 35911 ft 453 kts 327°
2026-04-14 14:52 43.02631 11.97331 35923 ft 452 kts 340°
2026-04-14 14:52 43.05674 11.96298 35920 ft 451 kts 352°
2026-04-14 14:52 43.08787 11.95746 35927 ft 451 kts 353°
2026-04-14 14:53 43.15022 11.94668 35916 ft 452 kts 353°
2026-04-14 14:53 43.21248 11.93464 35917 ft 452 kts 352°
2026-04-14 14:54 43.27351 11.91509 35917 ft 451 kts 335°
2026-04-14 14:54 43.32603 11.86912 35922 ft 449 kts 317°
2026-04-14 14:55 43.37253 11.81188 35915 ft 449 kts 316°
2026-04-14 14:55 43.41893 11.75418 35922 ft 450 kts 316°
2026-04-14 14:56 43.48914 11.66805 35935 ft 451 kts 317°
2026-04-14 14:56 43.53612 11.61064 35930 ft 452 kts 317°
2026-04-14 14:57 43.58312 11.55310 35930 ft 452 kts 317°
2026-04-14 14:57 43.63011 11.49542 35930 ft 452 kts 317°
2026-04-14 14:58 43.67706 11.43765 35950 ft 453 kts 316°
2026-04-14 14:58 43.72378 11.38003 35927 ft 453 kts 316°
2026-04-14 14:59 43.77061 11.32217 35932 ft 447 kts 316°
2026-04-14 14:59 43.79345 11.29393 35938 ft 433 kts 316°
2026-04-14 14:59 43.81552 11.26660 35928 ft 418 kts 316°
2026-04-14 15:00 43.85802 11.21385 35945 ft 407 kts 316°
2026-04-14 15:00 43.90021 11.16134 35946 ft 407 kts 316°
2026-04-14 15:01 43.92127 11.13510 35479 ft 409 kts 316°
2026-04-14 15:01 43.94269 11.10837 34599 ft 421 kts 316°
2026-04-14 15:01 43.96476 11.08082 33759 ft 431 kts 316°
2026-04-14 15:01 43.98723 11.05276 33006 ft 436 kts 316°
2026-04-14 15:02 44.00870 11.02325 32472 ft 433 kts 307°
2026-04-14 15:02 44.02583 10.98919 32053 ft 427 kts 297°
2026-04-14 15:02 44.03868 10.95227 31629 ft 422 kts 287°
2026-04-14 15:02 44.04741 10.91367 31247 ft 417 kts 283°
2026-04-14 15:03 44.05540 10.87506 30849 ft 414 kts 283°
2026-04-14 15:03 44.06329 10.83669 30473 ft 412 kts 284°
2026-04-14 15:03 44.07123 10.79856 30069 ft 410 kts 284°
2026-04-14 15:03 44.07923 10.76068 29608 ft 407 kts 284°
2026-04-14 15:04 44.08724 10.72311 29212 ft 403 kts 285°
2026-04-14 15:04 44.09519 10.68594 28805 ft 399 kts 284°
2026-04-14 15:04 44.10308 10.64904 28407 ft 396 kts 284°
2026-04-14 15:04 44.11088 10.61246 28003 ft 393 kts 284°
2026-04-14 15:05 44.11862 10.57610 27586 ft 391 kts 284°
2026-04-14 15:05 44.12631 10.53985 27158 ft 389 kts 284°
2026-04-14 15:05 44.13395 10.50381 26766 ft 387 kts 284°
2026-04-14 15:05 44.14152 10.46807 26373 ft 384 kts 285°
2026-04-14 15:06 44.14902 10.43260 25996 ft 380 kts 285°
2026-04-14 15:06 44.15645 10.39744 25609 ft 377 kts 285°
2026-04-14 15:06 44.16381 10.36251 25237 ft 375 kts 285°
2026-04-14 15:06 44.17107 10.32781 24874 ft 372 kts 285°
2026-04-14 15:07 44.17823 10.29330 24480 ft 370 kts 285°
2026-04-14 15:07 44.18532 10.25898 24110 ft 368 kts 285°
2026-04-14 15:07 44.19236 10.22482 23743 ft 366 kts 285°
2026-04-14 15:07 44.19928 10.19126 23359 ft 364 kts 286°
2026-04-14 15:08 44.20633 10.15707 22935 ft 362 kts 286°
2026-04-14 15:08 44.21314 10.12395 22542 ft 359 kts 286°
2026-04-14 15:08 44.22012 10.09069 22177 ft 356 kts 289°
2026-04-14 15:08 44.23000 10.05932 21805 ft 353 kts 300°
2026-04-14 15:09 44.24353 10.03098 21453 ft 349 kts 306°
2026-04-14 15:09 44.25772 10.00362 21098 ft 347 kts 306°
2026-04-14 15:09 44.27189 9.97654 20747 ft 345 kts 306°
2026-04-14 15:09 44.28594 9.94959 20397 ft 342 kts 306°
2026-04-14 15:10 44.29987 9.92269 20031 ft 341 kts 306°
2026-04-14 15:10 44.31368 9.89585 19700 ft 339 kts 306°
2026-04-14 15:10 44.32737 9.86914 19371 ft 337 kts 306°
2026-04-14 15:10 44.34096 9.84253 19023 ft 336 kts 306°
2026-04-14 15:11 44.35449 9.81600 18682 ft 334 kts 306°
2026-04-14 15:11 44.36795 9.78958 18345 ft 333 kts 306°
2026-04-14 15:11 44.38135 9.76324 17965 ft 332 kts 306°
2026-04-14 15:11 44.39469 9.73698 17596 ft 330 kts 306°
2026-04-14 15:12 44.40795 9.71086 17236 ft 328 kts 306°
2026-04-14 15:12 44.42114 9.68488 16891 ft 326 kts 306°
2026-04-14 15:12 44.43424 9.65905 16558 ft 324 kts 306°
2026-04-14 15:12 44.44727 9.63331 16226 ft 322 kts 306°
2026-04-14 15:13 44.46067 9.60831 15892 ft 320 kts 312°
2026-04-14 15:13 44.47569 9.58543 15574 ft 318 kts 315°
2026-04-14 15:13 44.49116 9.56339 15237 ft 317 kts 316°
2026-04-14 15:13 44.50666 9.54153 14914 ft 316 kts 316°
2026-04-14 15:14 44.52206 9.51969 14584 ft 314 kts 316°
2026-04-14 15:14 44.53733 9.49782 14259 ft 314 kts 316°
2026-04-14 15:14 44.55252 9.47592 13923 ft 313 kts 316°
2026-04-14 15:14 44.56763 9.45403 13572 ft 312 kts 317°
2026-04-14 15:15 44.58265 9.43218 13204 ft 310 kts 316°
2026-04-14 15:15 44.59751 9.41051 12874 ft 307 kts 316°
2026-04-14 15:15 44.61226 9.38897 12562 ft 305 kts 316°
2026-04-14 15:15 44.62674 9.36777 12232 ft 303 kts 316°
2026-04-14 15:16 44.64128 9.34648 11913 ft 301 kts 317°
2026-04-14 15:16 44.65588 9.32509 11591 ft 298 kts 316°
2026-04-14 15:16 44.67015 9.30415 11277 ft 296 kts 316°
2026-04-14 15:16 44.68415 9.28364 10982 ft 294 kts 315°
2026-04-14 15:17 44.69830 9.26285 10654 ft 294 kts 315°
2026-04-14 15:17 44.71241 9.24210 10347 ft 293 kts 316°
2026-04-14 15:17 44.72648 9.22141 10117 ft 289 kts 316°
2026-04-14 15:17 44.74021 9.20119 9925 ft 285 kts 315°
2026-04-14 15:18 44.75393 9.18099 9598 ft 285 kts 315°
2026-04-14 15:18 44.76828 9.16182 9302 ft 284 kts 324°
2026-04-14 15:18 44.78422 9.14543 9059 ft 285 kts 329°
2026-04-14 15:18 44.80060 9.12966 8791 ft 285 kts 329°
2026-04-14 15:19 44.81692 9.11397 8532 ft 283 kts 328°
2026-04-14 15:19 44.83308 9.09826 8293 ft 281 kts 329°
2026-04-14 15:19 44.84912 9.08252 8038 ft 280 kts 329°
2026-04-14 15:19 44.86504 9.06676 7789 ft 279 kts 329°
2026-04-14 15:20 44.88086 9.05104 7543 ft 278 kts 329°
2026-04-14 15:20 44.89658 9.03533 7298 ft 276 kts 329°
2026-04-14 15:20 44.91201 9.01988 7045 ft 275 kts 329°
2026-04-14 15:20 44.92755 9.00430 6797 ft 274 kts 329°
2026-04-14 15:21 44.94304 8.98875 6556 ft 272 kts 329°
2026-04-14 15:21 44.95844 8.97328 6325 ft 271 kts 329°
2026-04-14 15:21 44.97377 8.95786 6061 ft 269 kts 329°
2026-04-14 15:21 44.98890 8.94262 5807 ft 266 kts 329°
2026-04-14 15:22 45.00386 8.92755 5571 ft 262 kts 329°
2026-04-14 15:22 45.01862 8.91267 5344 ft 259 kts 329°
2026-04-14 15:22 45.03321 8.89795 5113 ft 257 kts 329°
2026-04-14 15:22 45.04850 8.88673 4950 ft 237 kts 352°
2026-04-14 15:23 45.06426 8.88274 4919 ft 225 kts 354°
2026-04-14 15:23 45.07951 8.87874 4870 ft 222 kts 354°
2026-04-14 15:23 45.09466 8.87468 4831 ft 221 kts 354°
2026-04-14 15:23 45.10978 8.87061 4777 ft 222 kts 354°
2026-04-14 15:24 45.12493 8.86652 4730 ft 221 kts 354°
2026-04-14 15:24 45.14001 8.86244 4702 ft 219 kts 353°
2026-04-14 15:24 45.15461 8.85846 4667 ft 208 kts 353°
2026-04-14 15:24 45.16854 8.85467 4633 ft 203 kts 353°
2026-04-14 15:25 45.18248 8.85090 4562 ft 204 kts 353°
2026-04-14 15:25 45.19625 8.84716 4489 ft 198 kts 353°
2026-04-14 15:25 45.20956 8.84353 4448 ft 193 kts 353°
2026-04-14 15:25 45.22288 8.83992 4434 ft 197 kts 353°
2026-04-14 15:26 45.23645 8.83624 4405 ft 200 kts 353°
2026-04-14 15:26 45.25021 8.83251 4360 ft 203 kts 351°
2026-04-14 15:26 45.26415 8.82870 4320 ft 204 kts 351°
2026-04-14 15:26 45.27811 8.82489 4273 ft 205 kts 352°
2026-04-14 15:27 45.29212 8.82108 4236 ft 205 kts 352°
2026-04-14 15:27 45.30614 8.81726 4198 ft 206 kts 351°
2026-04-14 15:27 45.32024 8.81342 4154 ft 206 kts 351°
2026-04-14 15:27 45.33426 8.80960 4106 ft 203 kts 351°
2026-04-14 15:28 45.34801 8.80585 4052 ft 199 kts 351°
2026-04-14 15:28 45.36157 8.80215 4020 ft 199 kts 352°
2026-04-14 15:28 45.37522 8.79866 3946 ft 201 kts 354°
2026-04-14 15:28 45.38918 8.79592 3865 ft 204 kts 355°
2026-04-14 15:29 45.40335 8.79322 3759 ft 205 kts 355°
2026-04-14 15:29 45.41721 8.79104 3636 ft 202 kts 356°
2026-04-14 15:29 45.43100 8.78832 3532 ft 198 kts 353°
2026-04-14 15:29 45.44461 8.78490 3436 ft 200 kts 349°
2026-04-14 15:30 45.45803 8.78124 3337 ft 192 kts 349°
2026-04-14 15:30 45.47084 8.77769 3232 ft 183 kts 349°
2026-04-14 15:30 45.48327 8.77424 3120 ft 183 kts 349°
2026-04-14 15:30 45.49591 8.77073 3060 ft 186 kts 349°
2026-04-14 15:31 45.50884 8.76715 2884 ft 191 kts 349°
2026-04-14 15:31 45.51764 8.76470 2716 ft 190 kts 349°
2026-04-14 15:31 45.53036 8.76118 2468 ft 185 kts 349°
2026-04-14 15:31 45.54274 8.75774 2239 ft 174 kts 349°
2026-04-14 15:32 45.55411 8.75459 2035 ft 161 kts 349°
2026-04-14 15:32 45.56534 8.75149 1771 ft 165 kts 349°
2026-04-14 15:32 45.57629 8.74866 1619 ft 158 kts 350°
2026-04-14 15:32 45.58720 8.74563 1375 ft 161 kts 346°
2026-04-14 15:33 45.59819 8.74245 1156 ft 163 kts 348°
2026-04-14 15:33 45.60940 8.73946 909 ft 164 kts 347°
2026-04-14 15:33 45.62030 8.73614 749 ft 155 kts 349°
2026-04-14 15:33 45.62880 8.73403 734 ft 50 kts 351°
2026-04-14 15:34 45.63130 8.73258 735 ft 29 kts 324°
2026-04-14 15:34 45.63220 8.73144 735 ft 16 kts 309°
2026-04-14 15:34 45.63285 8.73018 735 ft 14 kts 304°
2026-04-14 15:34 45.63324 8.72925 735 ft 9 kts 297°
2026-04-14 15:35 45.63354 8.72859 734 ft 7 kts 306°
2026-04-14 15:35 45.63384 8.72798 734 ft 8 kts 302°
2026-04-14 15:35 45.63398 8.72720 735 ft 8 kts 263°
2026-04-14 15:35 45.63377 8.72689 735 ft 1 kts 160°
2026-04-14 15:36 45.63372 8.72688 735 ft 1 kts 193°
2026-04-14 15:36 45.63359 8.72667 734 ft 7 kts 227°
2026-04-14 15:36 45.63313 8.72602 735 ft 11 kts 217°
2026-04-14 15:36 45.63243 8.72532 736 ft 14 kts 215°
2026-04-14 15:37 45.63165 8.72457 737 ft 13 kts 213°
2026-04-14 15:37 45.63090 8.72383 739 ft 13 kts 217°
2026-04-14 15:37 45.63041 8.72282 739 ft 13 kts 256°
2026-04-14 15:37 45.63020 8.72157 738 ft 14 kts 258°
2026-04-14 15:38 45.62974 8.72052 736 ft 13 kts 185°
2026-04-14 15:38 45.62884 8.72077 736 ft 13 kts 169°
2026-04-14 15:38 45.62797 8.72101 736 ft 13 kts 169°
2026-04-14 15:38 45.62711 8.72124 736 ft 12 kts 169°
2026-04-14 15:39 45.62625 8.72149 736 ft 13 kts 169°
2026-04-14 15:39 45.62528 8.72177 736 ft 15 kts 168°
2026-04-14 15:39 45.62438 8.72205 736 ft 12 kts 166°
2026-04-14 15:39 45.62376 8.72157 736 ft 12 kts 258°
2026-04-14 15:40 45.62358 8.72043 736 ft 12 kts 256°
2026-04-14 15:40 45.62338 8.71935 734 ft 10 kts 255°
2026-04-14 15:40 45.62328 8.71852 735 ft 7 kts 295°
2026-04-14 15:40 45.62372 8.71822 735 ft 7 kts 329°
2026-04-14 15:41 45.62407 8.71786 735 ft 3 kts 324°
2026-04-14 15:41 45.62408 8.71785 735 ft 0 kts 324°